{"data":{"norad_id":65253,"intl_designator":"2025-179U","name":"STARLINK-34933","alt_names":[],"object_type":"PAYLOAD","status":"ACTIVE","operator":null,"country":"US","launch_date":"2025-08-18","launch_site_code":"AFWTR","launch_vehicle":null,"mission":null,"orbit_class":"UNKNOWN","rcs_meters":null,"size_class":null,"mass_kg":null,"dimensions":null,"purposes":["comms"],"wikipedia_slug":null,"has_3d_model":false,"image_url":null,"decayed_at":null,"tle_current":{"epoch":"2026-09-20T14:17:58.379712Z","epoch_age_seconds":109249,"freshness":"FRESH","line1":"1 65253U 25179U   26263.59581458  .00018029  00000+0  55909-3 0  9999","line2":"2 65253  97.2827 302.8571 0000364 358.7985   1.3257 15.33464745 61324","mean_motion":15.33464745,"eccentricity":3.64e-5,"inclination_deg":97.2827,"raan_deg":302.8571,"arg_perigee_deg":358.7985,"mean_anomaly_deg":1.3257,"bstar":0.00055909,"rev_number":6132,"period_min":93.904995513933,"perigee_km":465.23532006031,"apogee_km":465.73353570026,"semimajor_km":6843.6214278803,"source":"CELESTRAK","updated_at":"2026-09-21T09:00:35.561543Z"}}}